This is the latest recevied weather packets stored in our database for station/object KE2A-13. If no packets are shown the sender has not sent any weather packets the latest 10 day(s).
| Time | Temp. | Humidity | Pressure | Rain* | Wind** | Luminosity | Snow |
|---|---|---|---|---|---|---|---|
| 1777657500 | 17.22° C | 37% | 1011.2 hPa | - | - | - | - |
| 1777656600 | 17.22° C | 40% | 1011.3 hPa | - | - | - | - |
| 1777655700 | 16.67° C | 38% | 1011.4 hPa | - | - | - | - |
| 1777654800 | 16.67° C | 39% | 1011.8 hPa | - | - | - | - |
| 1777653900 | 16.11° C | 39% | 1011.9 hPa | - | - | - | - |
| 1777653000 | 16.11° C | 38% | 1012.1 hPa | - | - | - | - |
| 1777652100 | 15.56° C | 40% | 1012.1 hPa | - | - | - | - |
| 1777651200 | 15° C | 41% | 1012.4 hPa | - | - | - | - |
| 1777650300 | 15° C | 43% | 1012.6 hPa | - | - | - | - |
| 1777649400 | 14.44° C | 41% | 1012.7 hPa | - | - | - | - |
| 1777648500 | 13.89° C | 42% | 1012.8 hPa | - | - | - | - |
| 1777647601 | 13.89° C | 42% | 1012.9 hPa | - | - | - | - |
| 1777646700 | 13.89° C | 44% | 1012.8 hPa | - | - | - | - |
| 1777645800 | 13.89° C | 44% | 1012.8 hPa | - | - | - | - |
| 1777644900 | 13.89° C | 48% | 1012.9 hPa | - | - | - | - |
| 1777644000 | 13.33° C | 48% | 1012.8 hPa | - | - | - | - |
| 1777643100 | 12.78° C | 49% | 1012.9 hPa | - | - | - | - |
| 1777642200 | 12.22° C | 51% | 1013.1 hPa | - | - | - | - |
| 1777641300 | 11.67° C | 54% | 1013.1 hPa | - | - | - | - |
| 1777640400 | 11.67° C | 55% | 1013.2 hPa | - | - | - | - |
| 1777639500 | 12.22° C | 54% | 1013.2 hPa | - | - | - | - |
| 1777638600 | 11.67° C | 57% | 1013.3 hPa | - | - | - | - |
| 1777637700 | 11.67° C | 56% | 1013.1 hPa | - | - | - | - |
| 1777636800 | 10.56° C | 61% | 1013.1 hPa | - | - | - | - |
| 1777635900 | 9.44° C | 63% | 1013.2 hPa | - | - | - | - |
* Rain since midnight (hover to see other rain measurements)
** Current wind speed in m/s (hover to see current wind gust speed)